一网星座-0058星 (ONEWEB-0058 )

导读

ONEWEB-0058是英国OneWeb星座项目中的一颗低轨通信卫星,于2020年2月6日发射升空,属于OneWeb一期星座组网卫星,运行在1200公里高度近地轨道。OneWeb星座旨在为全球偏远及基础设施薄弱区域提供高速低延迟互联网接入,服务航空海运、应急通信等场景,ONEWEB-0058为缩小全球数字鸿沟贡献组网力量。

基本信息
目录编号:
45161
目录名称:
ONEWEB-0058
国际标识:
2020-008AG
轨道中心:
EARTH
卫星名称:
一网星座-0058星
卫星全名:
一网星座-0058星 (ONEWEB-0058 )
卫星状态:
在轨 (已飞行2409 天)
发射日期:
2020-02-06 UTC
国别 :
英国 (GB)
星等 :
--
该卫星已列入 空间交会检测服务 Space Conjunction Data Service (SCDS) ,当前飞行风险评估等级: 无高风险
轨道信息
数据来源 国际轨道数据 AOE轨道数据
星历时间 2026-09-11T01:32:14+0800
17小时前
查看轨道信息
2026-09-10T06:00:00+0800
1天前
查看轨道信息
半长轴 7599.862km 7599.87km
偏心率 0.0001787 0.0001864
轨道倾角 87.888° 87.889°
近地点辐角 91.277° 74.699°
升交点赤经 19.240° 19.403°
平近点角 268.856° 47.443°
近地点 1220.366km 1220.316km
远地点 1223.084km 1223.15km
周期 109.893分钟 109.893分钟
每日圈数 13.103709 13.103689
详细信息
平衡模式:
三轴稳定
覆盖范围:
全球
运营商:
一网卫星公司
运营商所在国:
英国
制造商(研发单位):
一网卫星公司
制造商所在国:
英国
使用方式:
暂无
卫星简介
OneWeb卫星网络由648颗重约125公斤的微型卫星组成,运行在1200公里的轨道上。 每颗卫星都能够提供至少每秒8千兆位的吞吐量,以使用其高吞吐量的Ku频段有效载荷为家庭和移动平台提供互联网接入。该卫星仍在工作。
2D轨道图
3D轨道图
轨道高度分析图
轨道倾角分析图
轨道综合分析图
查看轨道综合分析图
与全量物体交会距离演化趋势
与全量物体交会风险概率演化趋势